Tracking 23762 objects as of 20-Oct-2021
HD Live streaming from Space Station
objects crossing your sky now

COSMOS 2494 (SKRL 756)

Track COSMOS 2494 (SKRL 756) now!
10-day predictions
COSMOS 2494 (SKRL 756) is classified as:


NORAD ID: 39491
Int'l Code: 2013-078B
Perigee: 588.3 km
Apogee: 620.0 km
Inclination: 82.4 °
Period: 96.6 minutes
Semi major axis: 6975 km
RCS: Unknown
Launch date: December 28, 2013
Source: Commonwealth of Independent States (former USSR) (CIS)
Launch site: PLESETSK MISSILE AND SPACE COMPLEX (PKMTR)
aabbcc
Your satellite tracking list
Your tracking list is empty




NASA's NSSDC Master Catalog

Two Line Element Set (TLE):
1 39491U 13078B   21292.88990127  .00000607  00000-0  59592-4 0  9992
2 39491  82.4155  98.9195 0022679 149.7473 210.5060 14.90290973424429
Source of the keplerian elements: AFSPC